• Processing (Info)

  • MPEC 2013-T54 : 2013 TC6

    The following Minor Planet Electronic Circular may be linked-to from your own Web pages, but must not otherwise be redistributed electronically.

    A form allowing access to any MPEC is at the bottom of this page.


    Read MPEC 2013-T53 Read MPEC 2013-T55


    M.P.E.C. 2013-T54                                Issued 2013 Oct. 6, 22:42 UT
    
         The Minor Planet Electronic Circulars contain information on unusual
             minor planets and routine data on comets.  They are published
       on behalf of Commission 20 of the International Astronomical Union by the
              Minor Planet Center, Smithsonian Astrophysical Observatory,
                              Cambridge, MA 02138, U.S.A.
    
                 Prepared using the Tamkin Foundation Computer Network
    
                                  MPC@CFA.HARVARD.EDU
                URL http://www.minorplanetcenter.net/    ISSN 1523-6714
    
                                       2013 TC6
    
    Observations:
         K13T06C* C2013 10 04.42461 04 42 23.35 +18 23 14.6          18.8 VqET054703
         K13T06C  C2013 10 04.44668 04 42 02.10 +18 18 47.1          19.1 VqET054703
         K13T06C  C2013 10 04.48674 04 41 23.61 +18 10 44.9          18.6 VqET054703
         K13T06C  C2013 10 04.48766 04 41 22.75 +18 10 33.1          18.4 VqET054703
         K13T06C  C2013 10 04.48947 04 41 20.91 +18 10 09.5          18.9 VqET054703
         K13T06C  C2013 10 04.51981 04 40 52.12 +18 04 04.4          18.5 VqET054703
         K13T06C  C2013 10 04.52177 04 40 50.17 +18 03 39.6          19.0 VqET054703
         K13T06C  C2013 10 05.46263 04 27 56.48 +15 06 26.0          18.8 VqET054G96
         K13T06C  C2013 10 05.46427 04 27 55.14 +15 06 08.2          18.8 VqET054G96
         K13T06C  C2013 10 05.46594 04 27 53.79 +15 05 50.6          18.8 VqET054G96
         K13T06C  C2013 10 05.46749 04 27 52.53 +15 05 34.2          18.9 VqET054G96
         K13T06C  C2013 10 05.46903 04 27 51.29 +15 05 17.8          18.7 VqET054G96
         K13T06C  C2013 10 06.35329 04 17 32.55 +12 38 02.8          19.6 RcET054854
         K13T06C  C2013 10 06.35556 04 17 31.03 +12 37 42.2          19.4 RcET054854
         K13T06C KC2013 10 06.46566 04 16 14.07 +12 20 40.7          18.8 RqET054448
         K13T06C KC2013 10 06.48380 04 16 01.68 +12 17 53.0          20.3 RqET054448
         K13T06C KC2013 10 06.49919 04 15 51.20 +12 15 30.1          20.3 RqET054448
    
    Observer details:
    448 Desert Moon Observatory.  Observer B. L. Stevens.  0.3-m
        Schmidt-Cassegrain + CCD.
    703 Catalina Sky Survey.  Observer A. R. Gibbs.  Measurers A. Boattini,
        E. J. Christensen, A. R. Gibbs, A. D. Grauer, R. E. Hill, J. A. Johnson,
        R. A. Kowalski, S. M. Larson, F. C. Shelly.  0.68-m Schmidt + CCD.
    854 Sabino Canyon Observatory, Tucson.  Observer J. E. McGaha.  0.36-m f/10.0
        Schmidt-Cassegrain + CCD.
    G96 Mt. Lemmon Survey.  Observer R. E. Hill.  Measurers A. Boattini,
        E. J. Christensen, A. R. Gibbs, A. D. Grauer, R. E. Hill, J. A. Johnson,
        R. A. Kowalski, S. M. Larson, F. C. Shelly.  1.5-m reflector + CCD.
    
    Orbital elements:
    2013 TC6                                                 Earth MOID = 0.0106 AU
    Epoch 2013 Sept. 25.0 TT = JDT 2456560.5                MPC
    M  16.87614              (2000.0)            P               Q
    n   0.46193038     Peri.  120.31418     +0.68047695     +0.73176083
    a   1.6573658      Node   192.79402     -0.71769775     +0.65498009
    e   0.4819953      Incl.    9.99489     -0.14785484     +0.18848652
    P   2.13           H   23.1           G   0.15
    From 17 observations 2013 Oct. 4-6.  E-assumed.
    
    Ephemeris:
    2013 TC6                 a,e,i = 1.66, 0.48, 10                  q = 0.8585
    Date    TT    R. A. (2000) Decl.     Delta      r     Elong.  Phase     V
    2013 09 06    13 26 18.8 +24 54 24   0.1651  0.8874    39.8   133.4    25.0
    ...
    2013 09 21    11 52 45.1 +40 07 21   0.06858 0.9520    39.3   138.1    23.8
    ...
    2013 09 29    07 06 44.7 +40 34 12   0.04511 0.9973    82.9    94.5    19.7
    ...
    2013 10 05    04 34 03.2 +16 31 38   0.06252 1.0348   122.2    54.8    19.2
    2013 10 06    04 21 27.3 +13 35 37   0.06741 1.0413   126.5    50.6    19.2
    2013 10 07    04 10 46.4 +11 02 10   0.07262 1.0478   130.2    46.8    19.3
    ...
    2013 10 13    03 30 15.3 +01 13 28   0.1082  1.0883   145.1    31.7    19.8
    ...
    2013 10 21    03 03 36.5 -04 26 35   0.1624  1.1445   154.8    21.7    20.5
    ...
    2013 11 05    02 39 34.7 -07 26 22   0.2796  1.2537   157.0    18.0    21.8
    
    A. U. Tomatic                (C) Copyright 2013 MPC           M.P.E.C. 2013-T54
    

    Read MPEC 2013-T53 Read MPEC 2013-T55


    MPEC number:

    Enter an MPEC number in one of the following forms:

    • 1997-B01 (the full form)
    • J97B01 (the packed version of the full form)
    • B01 (the abbreviated form)